When you browse on this site, cookies collect data to enhance your experience and personalize the content and advertising you see.
Visit our Privacy Policy to learn more. By continuing to use the site, you agree to this use of cookies and data.
  • In Österreich
  • Länderverzeichnis
  • Für 7 Tage
  • Wassertemperatur
  • Wetterkarte
  • News
  • Widgets
  • user-avatar
    Anmelden

    Stündliche Wetter Warsaw

    Heute, 30 März, Montag

    Zeit Temperatur Niederschläge Wind Luftdruck Luftfeuchtigkeit
    00:00 -3°C° 0 mm 6 m/S 755 mmHg 66%
    01:00 -2°C° 0 mm 5 m/S 756 mmHg 57%
    02:00 -4°C° 0 mm 5 m/S 756 mmHg 55%
    03:00 -5°C° 0 mm 5 m/S 756 mmHg 53%
    04:00 -5°C° 0 mm 5 m/S 757 mmHg 51%
    05:00 -5°C° 0 mm 5 m/S 757 mmHg 49%
    06:00 -4°C° 0 mm 5 m/S 757 mmHg 47%
    07:00 -4°C° 0 mm 6 m/S 757 mmHg 45%
    08:00 -2°C° 0 mm 5 m/S 757 mmHg 41%
    09:00 -1°C° 0 mm 5 m/S 757 mmHg 36%
    10:00 0°C° 0 mm 5 m/S 757 mmHg 32%
    11:00 +1°C° 0.1 mm 5 m/S 757 mmHg 37%
    12:00 +1°C° 0.1 mm 5 m/S 756 mmHg 41%
    13:00 +2°C° 0.1 mm 5 m/S 756 mmHg 45%
    14:00 +2°C° 0.2 mm 5 m/S 756 mmHg 45%
    15:00 +2°C° 0.2 mm 5 m/S 756 mmHg 45%
    16:00 +2°C° 0.2 mm 5 m/S 755 mmHg 45%
    17:00 +1°C° 0.2 mm 4 m/S 756 mmHg 50%
    18:00 +2°C° 0.2 mm 3 m/S 756 mmHg 55%
    19:00 +2°C° 0.2 mm 2 m/S 756 mmHg 60%
    20:00 +1°C° 0.1 mm 2 m/S 756 mmHg 62%
    21:00 +1°C° 0.1 mm 2 m/S 757 mmHg 63%
    22:00 +1°C° 0.1 mm 1 m/S 757 mmHg 65%
    23:00 +1°C° 0 mm 1 m/S 757 mmHg 66%

    Morgen, 31 März, Dienstag

    Zeit Temperatur Niederschläge Wind Luftdruck Luftfeuchtigkeit
    00:00 +1°C° 0 mm 1 m/S 757 mmHg 67%
    01:00 0°C° 0 mm 1 m/S 757 mmHg 68%
    02:00 0°C° 0 mm 1 m/S 758 mmHg 68%
    03:00 -1°C° 0 mm 0 m/S 758 mmHg 69%
    04:00 -1°C° 0 mm 0 m/S 758 mmHg 69%
    05:00 0°C° 0 mm 0 m/S 758 mmHg 67%
    06:00 +1°C° 0 mm 1 m/S 759 mmHg 65%
    07:00 +2°C° 0 mm 1 m/S 759 mmHg 63%
    08:00 +3°C° 0 mm 1 m/S 759 mmHg 58%
    09:00 +4°C° 0 mm 1 m/S 759 mmHg 54%
    10:00 +4°C° 0 mm 2 m/S 759 mmHg 50%
    11:00 +5°C° 0.2 mm 2 m/S 759 mmHg 49%
    12:00 +4°C° 0.2 mm 3 m/S 759 mmHg 47%
    13:00 +5°C° 0.2 mm 4 m/S 759 mmHg 46%
    14:00 +5°C° 0.1 mm 4 m/S 759 mmHg 43%
    15:00 +5°C° 0.1 mm 4 m/S 758 mmHg 41%
    16:00 +4°C° 0.1 mm 4 m/S 758 mmHg 38%
    17:00 +3°C° 0 mm 3 m/S 758 mmHg 44%
    18:00 +2°C° 0 mm 3 m/S 758 mmHg 49%
    19:00 +1°C° 0 mm 2 m/S 758 mmHg 55%
    20:00 +1°C° 0 mm 2 m/S 758 mmHg 61%
    21:00 0°C° 0 mm 3 m/S 759 mmHg 67%
    22:00 -1°C° 0 mm 3 m/S 759 mmHg 74%
    23:00 -1°C° 0 mm 3 m/S 758 mmHg 77%

    übermorgen, 1 April, Mittwoch

    Zeit Temperatur Niederschläge Wind Luftdruck Luftfeuchtigkeit
    00:00 -2°C° 0 mm 3 m/S 758 mmHg 80%
    01:00 -2°C° 0 mm 3 m/S 758 mmHg 83%
    02:00 -2°C° 0 mm 3 m/S 758 mmHg 82%
    03:00 -2°C° 0 mm 3 m/S 757 mmHg 81%
    04:00 -2°C° 0 mm 3 m/S 757 mmHg 81%
    05:00 -3°C° 0 mm 4 m/S 757 mmHg 72%
    06:00 -2°C° 0 mm 5 m/S 756 mmHg 63%
    07:00 -2°C° 0 mm 6 m/S 756 mmHg 54%
    08:00 -1°C° 0 mm 6 m/S 756 mmHg 51%
    09:00 +2°C° 0 mm 7 m/S 755 mmHg 48%
    10:00 +3°C° 0 mm 7 m/S 755 mmHg 46%
    11:00 +4°C° 0 mm 7 m/S 754 mmHg 45%
    12:00 +5°C° 0 mm 7 m/S 754 mmHg 44%
    13:00 +5°C° 0 mm 8 m/S 754 mmHg 44%
    14:00 +5°C° 0 mm 7 m/S 753 mmHg 48%
    15:00 +5°C° 0 mm 7 m/S 752 mmHg 51%
    16:00 +4°C° 0 mm 7 m/S 752 mmHg 55%
    17:00 +3°C° 0 mm 6 m/S 752 mmHg 60%
    18:00 +3°C° 0 mm 5 m/S 752 mmHg 65%
    19:00 +3°C° 0 mm 4 m/S 752 mmHg 70%
    20:00 +1°C° 0 mm 4 m/S 751 mmHg 72%
    21:00 +1°C° 0 mm 5 m/S 751 mmHg 74%
    22:00 +1°C° 0 mm 5 m/S 751 mmHg 76%
    23:00 0°C° 0 mm 5 m/S 750 mmHg 77%

    2 April, Donnerstag

    Zeit Temperatur Niederschläge Wind Luftdruck Luftfeuchtigkeit
    00:00 0°C° 0 mm 5 m/S 750 mmHg 78%
    01:00 0°C° 0 mm 5 m/S 750 mmHg 78%
    02:00 0°C° 0 mm 5 m/S 749 mmHg 80%
    03:00 0°C° 0 mm 5 m/S 749 mmHg 81%
    04:00 -1°C° 0 mm 6 m/S 749 mmHg 82%
    05:00 -1°C° 0 mm 6 m/S 749 mmHg 81%
    06:00 +1°C° 0 mm 6 m/S 749 mmHg 80%
    07:00 0°C° 0 mm 7 m/S 749 mmHg 79%
    08:00 +2°C° 0 mm 7 m/S 749 mmHg 74%
    09:00 +3°C° 0 mm 7 m/S 749 mmHg 69%
    10:00 +4°C° 0 mm 7 m/S 749 mmHg 64%
    11:00 +4°C° 0 mm 7 m/S 749 mmHg 64%
    12:00 +4°C° 0 mm 7 m/S 749 mmHg 64%
    13:00 +4°C° 0 mm 6 m/S 749 mmHg 64%
    14:00 +4°C° 0 mm 6 m/S 748 mmHg 64%
    15:00 +4°C° 0 mm 6 m/S 748 mmHg 64%
    16:00 +5°C° 0 mm 5 m/S 748 mmHg 64%
    17:00 +5°C° 0 mm 5 m/S 747 mmHg 66%
    18:00 +5°C° 0 mm 4 m/S 747 mmHg 68%
    19:00 +4°C° 0 mm 4 m/S 747 mmHg 70%
    20:00 +4°C° 0 mm 4 m/S 747 mmHg 68%
    21:00 +5°C° 0 mm 5 m/S 747 mmHg 66%
    22:00 +5°C° 0 mm 5 m/S 746 mmHg 64%
    23:00 +3°C° 0 mm 5 m/S 746 mmHg 65%

    3 April, Freitag

    Zeit Temperatur Niederschläge Wind Luftdruck Luftfeuchtigkeit
    00:00 +3°C° 0 mm 5 m/S 745 mmHg 66%
    01:00 +3°C° 0 mm 5 m/S 745 mmHg 67%
    02:00 +2°C° 0 mm 5 m/S 744 mmHg 68%
    03:00 +2°C° 0 mm 6 m/S 743 mmHg 68%
    04:00 +2°C° 0 mm 6 m/S 743 mmHg 69%
    05:00 +3°C° 0 mm 7 m/S 743 mmHg 68%
    06:00 +3°C° 0 mm 7 m/S 743 mmHg 67%
    07:00 +4°C° 0 mm 8 m/S 743 mmHg 65%
    08:00 +4°C° 0.1 mm 8 m/S 743 mmHg 63%
    09:00 +4°C° 0.1 mm 8 m/S 744 mmHg 60%
    10:00 +5°C° 0.1 mm 8 m/S 744 mmHg 57%
    11:00 +5°C° 0 mm 9 m/S 744 mmHg 53%
    12:00 +6°C° 0 mm 9 m/S 745 mmHg 49%
    13:00 +7°C° 0 mm 9 m/S 745 mmHg 45%
    14:00 +7°C° 0.1 mm 9 m/S 746 mmHg 45%
    15:00 +6°C° 0.1 mm 9 m/S 746 mmHg 45%
    16:00 +6°C° 0.1 mm 8 m/S 746 mmHg 45%
    17:00 +5°C° 0.2 mm 8 m/S 747 mmHg 50%
    18:00 +4°C° 0.2 mm 7 m/S 748 mmHg 56%
    19:00 +3°C° 0.2 mm 6 m/S 749 mmHg 61%
    20:00 +2°C° 0 mm 6 m/S 750 mmHg 59%
    21:00 +1°C° 0 mm 6 m/S 751 mmHg 56%
    22:00 -1°C° 0 mm 6 m/S 752 mmHg 54%
    23:00 0°C° 0 mm 5 m/S 752 mmHg 60%

    4 April, Samstag

    Zeit Temperatur Niederschläge Wind Luftdruck Luftfeuchtigkeit
    00:00 -1°C° 0 mm 5 m/S 753 mmHg 66%
    01:00 -1°C° 0 mm 5 m/S 754 mmHg 72%
    02:00 -2°C° 0 mm 4 m/S 755 mmHg 71%
    03:00 -2°C° 0 mm 4 m/S 756 mmHg 70%
    04:00 -2°C° 0 mm 4 m/S 756 mmHg 69%
    05:00 -2°C° 0 mm 4 m/S 757 mmHg 64%
    06:00 -1°C° 0 mm 4 m/S 758 mmHg 60%
    07:00 0°C° 0 mm 4 m/S 759 mmHg 56%
    08:00 +3°C° 0 mm 4 m/S 759 mmHg 52%
    09:00 +3°C° 0 mm 5 m/S 759 mmHg 48%
    10:00 +6°C° 0 mm 5 m/S 759 mmHg 44%
    11:00 +6°C° 0.2 mm 5 m/S 760 mmHg 44%
    12:00 +7°C° 0.2 mm 5 m/S 760 mmHg 44%
    13:00 +8°C° 0.2 mm 6 m/S 760 mmHg 43%
    14:00 +8°C° 0 mm 5 m/S 761 mmHg 43%
    15:00 +7°C° 0 mm 5 m/S 761 mmHg 42%
    16:00 +7°C° 0 mm 5 m/S 761 mmHg 42%
    17:00 +6°C° 0 mm 4 m/S 761 mmHg 49%
    18:00 +5°C° 0 mm 3 m/S 762 mmHg 56%
    19:00 +4°C° 0 mm 2 m/S 763 mmHg 63%
    20:00 +4°C° 0 mm 2 m/S 763 mmHg 65%
    21:00 +3°C° 0 mm 2 m/S 764 mmHg 68%
    22:00 +4°C° 0 mm 1 m/S 764 mmHg 71%
    23:00 +3°C° 0 mm 1 m/S 765 mmHg 72%
    Mehr zeigen